Showing default

SHIYAN 24C 02, 58651

Orbit data source: Space-Track

SHIYAN 24C 02, 58651 is a payload satellite owned by CASC (CN) in SSO that was launched on Mon, 25 Dec 2023 UTC via a CHANG ZHENG 11 launch vehicle from the South China Sea Launch Area (SCSLA). Payload-class satellites include a variety of spacecraft equipped with specific instruments for various scientific and technological missions. These include communications satellites like Starlink; space stations such as the ISS; scientific satellites like the Hubble; Earth observation satellites from companies like Planet Labs, Umbra, and HawkEye 360; GPS; miniature CubeSats for education and research; and military/defense satellites.

Loading next visibility...
Identifier
58651, 2023-206B
Orbit
SSO
Country
Flag of CNCN / PRC
Related business
Manufacturer
SECM?
Mission
Operational Defense Technology
Bus & Motor
Unknown
Mass
~80 kg wet, ~80 kg dry
Launch date (UTC)
2023-12-25 (2 years ago)
Launch vehicle
CHANG ZHENG 11
Launch site
South China Sea Launch Area (SCSLA)
Object type
Payload
Rocket body
Debris
Shape & HBR
Box + 4 Pan, 4.0 m
Radar Cross Section
8.634 m², Medium (>0.1 m² and < 1m²)

Expand to show TLE details & history
Last TLE update: 21 hours ago

TLE from 21 hours ago
0 SHIYAN 24C 02
1 58651U 23206B   25291.70902029  .00003560  00000-0  31144-3 0  9996
2 58651  97.3779 267.3364 0002037  95.7780 264.3675 14.97324377 99163
Epoch: 2025-10-18T17:00Z
TLE epoch observation values (Epoch: 2025-10-18T17:00:59.353Z)
Latitude
-0.00001°
Longitude
-15.34705°
Altitude
578.367 km
Speed
7.571 km/s
True Right ascension
17h 49m 20s
True Declination
0° 00' 00"
Sunlit
Object was in daylight at epoch
Visualization orbit readout
Latitude
Unknown
Longitude
Unknown
Altitude
Unknown
Speed
Unknown
Apparent Right ascension
Unknown
Apparent Declination
Unknown
Sunlit
N/A
Visualization observer readout
Local Sidereal Time
08:34:18
Azimuth
Unknown
Elevation
Unknown
Doppler factor
Unknown
Orbital elements
Apogee altitude
573.578 km
Perigee altitude
570.747 km
Semi-major axis
6,950.299 km
Eccentricity
0.0002
Inclination
97.3779°
RAAN
267.3364°
Arg. of periapsis
95.778°
True anomaly
264.34427°
Mean anomaly
264.3675°
Eccentric anomaly
264.35589°
Mean motion
3.74574 °/min
Orbital period
96.11 mins
BSTAR
0.00031144
Loading maneuver chart data...
Computing Atmospheric mass density...
Loading historical data...
Loading historical data...
Loading historical data...
Loading historical data...
Loading historical data...
Loading historical data...
Loading historical data...
Other satellites on launch #206 in the year 2023 (2023-12-25 UTC)

Documentation

Showing up to 5 results
|